| time (UTC) | temp F | wind direction | speed knots | gust knots | rain 1hr in | rain 24hr in | rain mn in | humidity % | barometer mb |
| 20260506042916 | 54 | 82 | 0.0 | 0.0 | 0.00 | 0.00 | 0.00 | 89 | 1016.9 |
| 20260506042420 | 54 | 82 | 0.0 | 0.0 | 0.00 | 0.00 | 0.00 | 89 | 1016.9 |
| 20260506042416 | 54 | 82 | 0.0 | 0.0 | 0.00 | 0.00 | 0.00 | 89 | 1016.8 |
| 20260506041414 | 54 | 82 | 0.0 | 0.0 | 0.00 | 0.00 | 0.00 | 88 | 1016.8 |
| 20260506040914 | 54 | 82 | 0.0 | 0.0 | 0.00 | 0.00 | 0.00 | 88 | 1016.8 |
| 20260506040414 | 55 | 82 | 0.0 | 0.9 | 0.00 | 0.00 | 0.00 | 89 | 1016.7 |
| 20260506035914 | 55 | 82 | 0.0 | 0.9 | 0.00 | 0.00 | 0.00 | 88 | 1016.6 |
| 20260506035414 | 55 | 82 | 0.0 | 0.9 | 0.00 | 0.00 | 0.00 | 88 | 1016.6 |
| 20260506034914 | 55 | 82 | 0.0 | 3.5 | 0.00 | 0.00 | 0.00 | 88 | 1016.5 |
| 20260506034415 | 55 | 82 | 0.0 | 3.5 | 0.00 | 0.00 | 0.00 | 88 | 1016.5 |
| 20260506033914 | 55 | 205 | 0.0 | 0.0 | 0.00 | 0.00 | 0.00 | 89 | 1016.5 |
| 20260506033415 | 55 | 205 | 0.0 | 1.7 | 0.00 | 0.00 | 0.00 | 88 | 1016.4 |
| 20260506032919 | 55 | 205 | 0.0 | 1.7 | 0.00 | 0.00 | 0.00 | 88 | 1016.3 |
| 20260506032914 | 55 | 205 | 0.0 | 1.7 | 0.00 | 0.00 | 0.00 | 88 | 1016.3 |
| 20260506031914 | 55 | 205 | 0.0 | 2.6 | 0.00 | 0.00 | 0.00 | 88 | 1016.1 |
| 20260506031414 | 55 | 205 | 0.0 | 2.6 | 0.00 | 0.00 | 0.00 | 88 | 1016.2 |
| 20260506030914 | 55 | 242 | 0.0 | 0.0 | 0.00 | 0.00 | 0.00 | 89 | 1016.1 |
| 20260506030414 | 55 | 242 | 0.0 | 0.0 | 0.00 | 0.00 | 0.00 | 89 | 1016.0 |
| 20260506025914 | 55 | 242 | 0.0 | 0.0 | 0.00 | 0.00 | 0.00 | 89 | 1016.0 |
| 20260506025414 | 55 | 242 | 0.0 | 0.0 | 0.00 | 0.00 | 0.00 | 89 | 1015.9 |
| 20260506024915 | 56 | 242 | 0.0 | 0.0 | 0.00 | 0.00 | 0.00 | 88 | 1015.9 |
| 20260506024420 | 56 | 242 | 0.0 | 0.0 | 0.00 | 0.00 | 0.00 | 88 | 1015.6 |
| 20260506024414 | 56 | 242 | 0.0 | 0.0 | 0.00 | 0.00 | 0.00 | 88 | 1015.6 |
| 20260506023914 | 56 | 242 | 0.0 | 0.0 | 0.00 | 0.00 | 0.00 | 89 | 1015.7 |
| 20260506023414 | 56 | 242 | 0.0 | 0.0 | 0.00 | 0.00 | 0.00 | 88 | 1015.7 |
| 20260506022914 | 56 | 242 | 0.0 | 0.0 | 0.00 | 0.00 | 0.00 | 88 | 1015.6 |
| 20260506021914 | 56 | 242 | 0.0 | 0.0 | 0.00 | 0.00 | 0.00 | 88 | 1015.6 |
| 20260506021414 | 56 | 123 | 0.0 | 0.0 | 0.00 | 0.00 | 0.00 | 88 | 1015.6 |
| 20260506020915 | 56 | 123 | 0.0 | 0.0 | 0.00 | 0.00 | 0.00 | 88 | 1015.6 |
| 20260506020418 | 56 | 122 | 0.0 | 0.0 | 0.00 | 0.00 | 0.00 | 87 | 1015.7 |
| 20260506020414 | 56 | 122 | 0.0 | 0.0 | 0.00 | 0.00 | 0.00 | 88 | 1015.7 |
| 20260506015414 | 56 | 122 | 0.0 | 0.0 | 0.00 | 0.00 | 0.00 | 87 | 1015.7 |
| 20260506014914 | 56 | 122 | 0.0 | 0.0 | 0.00 | 0.00 | 0.00 | 88 | 1015.7 |
| 20260506014414 | 56 | 122 | 0.0 | 0.0 | 0.00 | 0.00 | 0.00 | 89 | 1015.6 |
| 20260506013914 | 56 | 122 | 0.0 | 0.0 | 0.00 | 0.00 | 0.00 | 89 | 1015.6 |
| 20260506013413 | 56 | 122 | 0.0 | 0.0 | 0.00 | 0.00 | 0.00 | 89 | 1015.6 |
| 20260506012913 | 56 | 122 | 0.0 | 0.0 | 0.00 | 0.00 | 0.00 | 88 | 1015.5 |
| 20260506012518 | 57 | 227 | 0.0 | 0.0 | 0.00 | 0.00 | 0.00 | 88 | 1015.5 |
| 20260506012417 | 57 | 227 | 0.0 | 0.0 | 0.00 | 0.00 | 0.00 | 88 | 1015.5 |
| 20260506012412 | 57 | 122 | 0.0 | 0.0 | 0.00 | 0.00 | 0.00 | 88 | 1015.5 |
| 20260506010912 | 57 | 227 | 0.0 | 0.0 | 0.00 | 0.00 | 0.00 | 88 | 1015.4 |
| 20260506010412 | 57 | 227 | 0.0 | 0.0 | 0.00 | 0.00 | 0.00 | 88 | 1015.4 |
| 20260506005912 | 57 | 227 | 0.0 | 0.0 | 0.00 | 0.00 | 0.00 | 88 | 1015.4 |
| 20260506005414 | 57 | 227 | 0.0 | 0.0 | 0.00 | 0.00 | 0.00 | 87 | 1015.3 |
| 20260506005410 | 57 | 227 | 0.0 | 0.0 | 0.00 | 0.00 | 0.00 | 88 | 1015.4 |
| 20260506004410 | 58 | 227 | 0.0 | 0.0 | 0.00 | 0.00 | 0.00 | 87 | 1015.3 |
| 20260506003913 | 58 | 227 | 0.0 | 0.0 | 0.00 | 0.00 | 0.00 | 86 | 1015.3 |
| 20260506003909 | 58 | 227 | 0.0 | 0.0 | 0.00 | 0.00 | 0.00 | 86 | 1015.3 |
| 20260506003515 | 58 | 227 | 0.0 | 0.0 | 0.00 | 0.00 | 0.00 | 85 | 1015.2 |
| 20260506002415 | 59 | 227 | 0.0 | 0.0 | 0.00 | 0.00 | 0.00 | 83 | 1015.1 |
| 20260506002410 | 58 | 227 | 0.0 | 0.0 | 0.00 | 0.00 | 0.00 | 85 | 1015.2 |
| 20260506001910 | 59 | 227 | 0.0 | 0.0 | 0.00 | 0.00 | 0.00 | 83 | 1015.2 |
| 20260506000909 | 59 | 227 | 0.0 | 0.0 | 0.00 | 0.00 | 0.00 | 82 | 1015.0 |
| 20260506000410 | 59 | 234 | 0.0 | 0.0 | 0.00 | 0.00 | 0.00 | 81 | 1015.0 |
| 20260505235911 | 59 | 221 | 0.0 | 0.0 | 0.00 | 0.00 | 0.00 | 79 | 1015.0 |
| 20260505235906 | 59 | 234 | 0.0 | 0.0 | 0.00 | 0.00 | 0.00 | 79 | 1015.0 |
| 20260505234910 | 59 | 98 | 0.0 | 0.0 | 0.00 | 0.00 | 0.00 | 80 | 1014.9 |
| 20260505234906 | 59 | 230 | 0.0 | 0.0 | 0.00 | 0.00 | 0.00 | 79 | 1014.9 |
| 20260505233910 | 59 | 232 | 0.0 | 1.7 | 0.00 | 0.00 | 0.00 | 79 | 1014.9 |
| 20260505233906 | 59 | 82 | 0.0 | 0.0 | 0.00 | 0.00 | 0.00 | 80 | 1015.0 |
| 20260505233510 | 59 | 227 | 0.9 | 4.3 | 0.00 | 0.00 | 0.00 | 79 | 1014.9 |
| 20260505232408 | 59 | 317 | 0.9 | 3.5 | 0.00 | 0.00 | 0.00 | 83 | 1015.0 |
| 20260505232404 | 59 | 227 | 0.9 | 4.3 | 0.00 | 0.00 | 0.00 | 80 | 1014.9 |
| 20260505231403 | 58 | 268 | 0.9 | 2.6 | 0.00 | 0.00 | 0.00 | 82 | 1015.0 |
| 20260505230903 | 58 | 267 | 0.9 | 5.2 | 0.00 | 0.00 | 0.00 | 82 | 1015.1 |
| 20260505230404 | 58 | 267 | 0.9 | 5.2 | 0.00 | 0.00 | 0.00 | 83 | 1015.1 |
| 20260505225904 | 58 | 253 | 0.9 | 3.5 | 0.00 | 0.00 | 0.00 | 82 | 1015.1 |
| 20260505225403 | 58 | 200 | 0.0 | 1.7 | 0.00 | 0.00 | 0.00 | 82 | 1015.1 |
| 20260505224908 | 58 | 112 | 0.0 | 0.9 | 0.00 | 0.00 | 0.00 | 84 | 1015.2 |
| 20260505224904 | 58 | 114 | 0.0 | 0.0 | 0.00 | 0.00 | 0.00 | 83 | 1015.1 |
| 20260505223908 | 58 | 112 | 0.0 | 1.7 | 0.00 | 0.00 | 0.00 | 83 | 1015.3 |
| 20260505223904 | 58 | 112 | 0.0 | 1.7 | 0.00 | 0.00 | 0.00 | 83 | 1015.3 |
| 20260505222903 | 58 | 112 | 0.0 | 0.9 | 0.00 | 0.00 | 0.00 | 85 | 1015.3 |
| 20260505222403 | 58 | 112 | 0.0 | 0.9 | 0.00 | 0.00 | 0.00 | 85 | 1015.3 |
| 20260505221904 | 58 | 112 | 0.0 | 0.9 | 0.00 | 0.00 | 0.00 | 85 | 1015.4 |
| 20260505221402 | 57 | 112 | 0.0 | 0.9 | 0.00 | 0.00 | 0.00 | 85 | 1015.4 |
| 20260505220902 | 57 | 112 | 0.0 | 1.7 | 0.00 | 0.00 | 0.00 | 84 | 1015.4 |
| 20260505220401 | 57 | 112 | 0.0 | 1.7 | 0.00 | 0.00 | 0.00 | 84 | 1015.5 |
| 20260505215902 | 57 | 112 | 0.0 | 2.6 | 0.00 | 0.00 | 0.00 | 84 | 1015.5 |
| 20260505215402 | 57 | 112 | 0.9 | 2.6 | 0.00 | 0.00 | 0.00 | 84 | 1015.5 |
| 20260505214901 | 57 | 113 | 0.0 | 2.6 | 0.00 | 0.00 | 0.00 | 84 | 1015.5 |
| 20260505214401 | 58 | 115 | 0.0 | 2.6 | 0.00 | 0.00 | 0.00 | 84 | 1015.5 |
| 20260505213902 | 58 | 116 | 0.0 | 2.6 | 0.00 | 0.00 | 0.00 | 84 | 1015.5 |
| 20260505213408 | 58 | 198 | 0.0 | 1.7 | 0.00 | 0.00 | 0.00 | 83 | 1015.6 |
| 20260505213403 | 58 | 121 | 0.0 | 0.9 | 0.00 | 0.00 | 0.00 | 84 | 1015.6 |
| 20260505213006 | 58 | 198 | 0.9 | 3.5 | 0.00 | 0.00 | 0.00 | 84 | 1015.6 |
| 20260505212504 | 58 | 198 | 1.7 | 3.5 | 0.00 | 0.00 | 0.00 | 83 | 1015.7 |
| 20260505211400 | 58 | 236 | 0.9 | 2.6 | 0.00 | 0.00 | 0.00 | 83 | 1015.6 |
| 20260505210859 | 58 | 223 | 0.0 | 2.6 | 0.00 | 0.00 | 0.00 | 84 | 1015.6 |
| 20260505210359 | 57 | 109 | 0.0 | 1.7 | 0.00 | 0.00 | 0.00 | 83 | 1015.6 |
| 20260505205859 | 57 | 242 | 0.0 | 2.6 | 0.00 | 0.00 | 0.00 | 84 | 1015.5 |
| 20260505205403 | 57 | 71 | 0.9 | 5.2 | 0.00 | 0.00 | 0.00 | 84 | 1015.6 |
| 20260505205359 | 57 | 242 | 0.0 | 2.6 | 0.00 | 0.00 | 0.00 | 83 | 1015.5 |
| 20260505204359 | 57 | 255 | 0.9 | 5.2 | 0.00 | 0.00 | 0.00 | 84 | 1015.6 |
| 20260505203900 | 57 | 175 | 0.0 | 0.0 | 0.00 | 0.00 | 0.00 | 84 | 1015.7 |
| 20260505203358 | 57 | 243 | 0.0 | 0.0 | 0.00 | 0.00 | 0.00 | 84 | 1015.6 |
| 20260505202902 | 57 | 301 | 0.9 | 3.5 | 0.00 | 0.00 | 0.00 | 84 | 1015.7 |
| 20260505202858 | 57 | 280 | 0.9 | 3.5 | 0.00 | 0.00 | 0.00 | 84 | 1015.6 |
| 20260505201858 | 57 | 252 | 0.0 | 2.6 | 0.00 | 0.00 | 0.00 | 83 | 1015.6 |
| 20260505201357 | 57 | 253 | 0.0 | 0.0 | 0.00 | 0.00 | 0.00 | 82 | 1015.7 |
| 20260505200904 | 57 | 242 | 0.0 | 0.0 | 0.00 | 0.00 | 0.00 | 83 | 1015.9 |
| 20260505200900 | 57 | 244 | 0.0 | 0.0 | 0.00 | 0.00 | 0.00 | 83 | 1015.7 |
| 20260505195902 | 57 | 200 | 0.0 | 2.6 | 0.00 | 0.00 | 0.00 | 82 | 1015.9 |
| 20260505195857 | 57 | 240 | 0.0 | 2.6 | 0.00 | 0.00 | 0.00 | 82 | 1015.9 |
| 20260505194857 | 57 | 244 | 0.0 | 0.0 | 0.00 | 0.00 | 0.00 | 83 | 1015.9 |
| 20260505194358 | 57 | 243 | 0.0 | 0.0 | 0.00 | 0.00 | 0.00 | 82 | 1015.9 |
| 20260505193858 | 56 | 78 | 0.9 | 1.7 | 0.00 | 0.00 | 0.00 | 84 | 1016.0 |
| 20260505193403 | 56 | 238 | 1.7 | 3.5 | 0.00 | 0.00 | 0.00 | 82 | 1016.0 |
| 20260505193359 | 56 | 238 | 1.7 | 3.5 | 0.00 | 0.00 | 0.00 | 83 | 1016.0 |
| 20260505192359 | 56 | 240 | 0.9 | 3.5 | 0.00 | 0.00 | 0.00 | 82 | 1016.0 |
| 20260505191902 | 56 | 248 | 1.7 | 3.5 | 0.00 | 0.00 | 0.00 | 82 | 1016.0 |
| 20260505191858 | 56 | 248 | 0.9 | 2.6 | 0.00 | 0.00 | 0.00 | 83 | 1016.0 |
| 20260505190856 | 56 | 266 | 1.7 | 3.5 | 0.00 | 0.00 | 0.00 | 82 | 1016.0 |
| 20260505190405 | 56 | 221 | 1.7 | 6.1 | 0.00 | 0.00 | 0.00 | 82 | 1015.9 |
| 20260505190355 | 56 | 306 | 1.7 | 4.3 | 0.00 | 0.00 | 0.00 | 83 | 1015.9 |
| 20260505185958 | 56 | 238 | 1.7 | 6.1 | 0.00 | 0.00 | 0.00 | 82 | 1015.9 |
| 20260505184853 | 56 | 221 | 1.7 | 6.1 | 0.00 | 0.00 | 0.00 | 81 | 1015.7 |
| 20260505184354 | 56 | 269 | 0.9 | 5.2 | 0.00 | 0.00 | 0.00 | 81 | 1015.7 |
| 20260505183853 | 56 | 262 | 1.7 | 6.1 | 0.00 | 0.00 | 0.00 | 81 | 1015.7 |
| 20260505183354 | 56 | 217 | 0.9 | 6.1 | 0.00 | 0.00 | 0.00 | 80 | 1015.7 |
| 20260505182853 | 56 | 187 | 0.0 | 3.5 | 0.00 | 0.00 | 0.00 | 81 | 1015.9 |
| 20260505182353 | 56 | 179 | 0.0 | 3.5 | 0.00 | 0.00 | 0.00 | 79 | 1015.9 |
| 20260505181853 | 56 | 9 | 0.9 | 3.5 | 0.00 | 0.00 | 0.00 | 82 | 1015.7 |
| 20260505181353 | 56 | 235 | 0.9 | 3.5 | 0.00 | 0.00 | 0.00 | 80 | 1015.6 |
| 20260505180858 | 56 | 236 | 0.0 | 0.9 | 0.00 | 0.00 | 0.00 | 80 | 1015.6 |
| 20260505180853 | 57 | 250 | 0.0 | 3.5 | 0.00 | 0.00 | 0.00 | 79 | 1015.6 |
| 20260505180457 | 56 | 236 | 0.9 | 2.6 | 0.00 | 0.00 | 0.00 | 80 | 1015.5 |
| 20260505175353 | 56 | 236 | 0.9 | 2.6 | 0.00 | 0.00 | 0.00 | 81 | 1015.5 |
| 20260505174853 | 56 | 277 | 0.9 | 2.6 | 0.00 | 0.00 | 0.00 | 81 | 1015.4 |
| 20260505174353 | 56 | 275 | 0.0 | 2.6 | 0.00 | 0.00 | 0.00 | 80 | 1015.4 |
| 20260505173853 | 55 | 288 | 0.0 | 0.0 | 0.00 | 0.00 | 0.00 | 80 | 1015.3 |
| 20260505173353 | 55 | 263 | 0.0 | 0.0 | 0.00 | 0.00 | 0.00 | 81 | 1015.1 |
| 20260505172853 | 55 | 252 | 0.0 | 0.0 | 0.00 | 0.00 | 0.00 | 81 | 1015.3 |
| 20260505172353 | 55 | 247 | 0.0 | 0.0 | 0.00 | 0.00 | 0.00 | 81 | 1015.3 |
| 20260505171853 | 55 | 247 | 0.0 | 0.0 | 0.00 | 0.00 | 0.00 | 83 | 1015.2 |
| 20260505171354 | 55 | 246 | 0.0 | 0.0 | 0.00 | 0.00 | 0.00 | 82 | 1015.2 |
| 20260505170853 | 55 | 207 | 0.0 | 1.7 | 0.00 | 0.00 | 0.00 | 82 | 1015.3 |
| 20260505170353 | 55 | 108 | 0.0 | 2.6 | 0.00 | 0.00 | 0.00 | 83 | 1015.3 |
| 20260505165853 | 55 | 108 | 0.0 | 2.6 | 0.00 | 0.00 | 0.00 | 83 | 1015.2 |
| 20260505165353 | 54 | 111 | 0.9 | 3.5 | 0.00 | 0.00 | 0.00 | 85 | 1015.2 |
| 20260505164853 | 54 | 82 | 0.9 | 3.5 | 0.00 | 0.00 | 0.00 | 84 | 1015.1 |
| 20260505164353 | 54 | 285 | 0.9 | 3.5 | 0.00 | 0.00 | 0.00 | 85 | 1015.0 |
| 20260505163858 | 53 | 219 | 0.0 | 2.6 | 0.00 | 0.00 | 0.00 | 86 | 1015.0 |
| 20260505163853 | 54 | 278 | 0.9 | 3.5 | 0.00 | 0.00 | 0.00 | 86 | 1014.9 |
| 20260505163352 | 53 | 213 | 0.9 | 2.6 | 0.00 | 0.00 | 0.00 | 85 | 1014.9 |
| 20260505162350 | 53 | 34 | 0.0 | 0.0 | 0.00 | 0.00 | 0.00 | 87 | 1015.1 |
| 20260505161852 | 53 | 34 | 0.0 | 0.0 | 0.00 | 0.00 | 0.00 | 87 | 1015.0 |
| 20260505161355 | 52 | 34 | 0.0 | 0.0 | 0.00 | 0.00 | 0.00 | 88 | 1015.0 |
| 20260505161351 | 53 | 34 | 0.0 | 0.0 | 0.00 | 0.00 | 0.00 | 87 | 1015.0 |
| 20260505160955 | 52 | 34 | 0.0 | 1.7 | 0.00 | 0.00 | 0.00 | 88 | 1014.9 |
| 20260505160349 | 52 | 34 | 0.0 | 0.9 | 0.00 | 0.00 | 0.00 | 88 | 1014.9 |
| 20260505153345 | 51 | 53 | 0.0 | 0.9 | 0.00 | 0.00 | 0.00 | 89 | 1014.9 |
| 20260505152844 | 51 | 53 | 0.0 | 1.7 | 0.00 | 0.00 | 0.00 | 89 | 1014.8 |
| 20260505152342 | 51 | 53 | 0.0 | 1.7 | 0.00 | 0.00 | 0.00 | 89 | 1014.7 |
| 20260505151846 | 51 | 54 | 0.0 | 0.0 | 0.00 | 0.00 | 0.00 | 91 | 1014.6 |
| 20260505151842 | 51 | 54 | 0.0 | 0.9 | 0.00 | 0.00 | 0.00 | 90 | 1014.7 |
| 20260505150840 | 51 | 54 | 0.0 | 0.0 | 0.00 | 0.00 | 0.00 | 91 | 1014.6 |
| 20260505150341 | 51 | 54 | 0.0 | 0.0 | 0.00 | 0.00 | 0.00 | 91 | 1014.6 |
| 20260505140335 | 50 | 355 | 0.0 | 0.0 | 0.00 | 0.00 | 0.00 | 91 | 1014.1 |
| 20260505124331 | 49 | 355 | 0.0 | 0.0 | 0.00 | 0.00 | 0.00 | 91 | 1013.9 |
| 20260505123830 | 49 | 355 | 0.0 | 0.0 | 0.00 | 0.00 | 0.00 | 91 | 1013.9 |
| 20260505123330 | 49 | 355 | 0.0 | 0.0 | 0.00 | 0.00 | 0.00 | 91 | 1013.9 |
| 20260505122830 | 49 | 355 | 0.0 | 0.0 | 0.00 | 0.00 | 0.00 | 91 | 1014.1 |
| 20260505122330 | 49 | 355 | 0.0 | 0.0 | 0.00 | 0.00 | 0.00 | 92 | 1014.1 |
| 20260505121830 | 49 | 355 | 0.0 | 0.0 | 0.00 | 0.00 | 0.00 | 92 | 1014.1 |
| 20260505121328 | 49 | 355 | 0.0 | 0.0 | 0.00 | 0.00 | 0.00 | 92 | 1014.1 |
| 20260505120828 | 49 | 355 | 0.0 | 0.0 | 0.00 | 0.00 | 0.00 | 92 | 1014.1 |
| 20260505120329 | 49 | 355 | 0.0 | 0.9 | 0.00 | 0.00 | 0.00 | 92 | 1014.1 |
| 20260505115828 | 49 | 355 | 0.0 | 0.9 | 0.00 | 0.00 | 0.00 | 92 | 1014.1 |
| 20260505115328 | 49 | 208 | 0.0 | 0.9 | 0.00 | 0.00 | 0.00 | 92 | 1014.2 |
| 20260505114829 | 49 | 226 | 0.0 | 0.0 | 0.00 | 0.00 | 0.00 | 93 | 1014.2 |
| 20260505114328 | 49 | 226 | 0.0 | 0.0 | 0.00 | 0.00 | 0.00 | 92 | 1014.1 |
| 20260505113833 | 49 | 226 | 0.0 | 0.0 | 0.00 | 0.00 | 0.00 | 92 | 1014.0 |
| 20260505113829 | 49 | 226 | 0.0 | 0.0 | 0.00 | 0.00 | 0.00 | 92 | 1014.1 |
| 20260505112828 | 49 | 226 | 0.0 | 0.0 | 0.00 | 0.00 | 0.00 | 92 | 1014.1 |
| 20260505112328 | 49 | 226 | 0.0 | 0.0 | 0.00 | 0.00 | 0.00 | 92 | 1014.0 |
| 20260505111828 | 49 | 226 | 0.0 | 0.0 | 0.00 | 0.00 | 0.00 | 92 | 1014.0 |
| 20260505111333 | 49 | 226 | 0.0 | 0.0 | 0.00 | 0.00 | 0.00 | 92 | 1014.0 |
| 20260505111328 | 49 | 226 | 0.0 | 0.0 | 0.00 | 0.00 | 0.00 | 92 | 1014.0 |
| 20260505110327 | 50 | 226 | 0.0 | 0.0 | 0.00 | 0.00 | 0.00 | 92 | 1014.0 |
| 20260505101929 | 50 | 226 | 0.0 | 0.0 | 0.00 | 0.01 | 0.00 | 91 | 1013.9 |
| 20260505101829 | 50 | 226 | 0.0 | 0.0 | 0.00 | 0.00 | 0.00 | 91 | 1014.0 |
| 20260505101824 | 50 | 226 | 0.0 | 0.0 | 0.00 | 0.00 | 0.00 | 91 | 1014.0 |
| 20260505100324 | 50 | 226 | 0.0 | 0.0 | 0.00 | 0.01 | 0.00 | 91 | 1014.0 |
| 20260505095824 | 50 | 226 | 0.0 | 0.0 | 0.00 | 0.01 | 0.00 | 91 | 1014.0 |
| 20260505095324 | 50 | 226 | 0.0 | 0.0 | 0.00 | 0.01 | 0.00 | 92 | 1014.1 |
| 20260505094824 | 50 | 226 | 0.0 | 0.0 | 0.00 | 0.01 | 0.00 | 91 | 1014.1 |
| 20260505094330 | 51 | 226 | 0.0 | 0.0 | 0.00 | 0.01 | 0.00 | 91 | 1014.1 |
| 20260505094324 | 50 | 226 | 0.0 | 0.0 | 0.00 | 0.01 | 0.00 | 91 | 1014.2 |
| 20260505093824 | 51 | 226 | 0.0 | 0.0 | 0.00 | 0.01 | 0.00 | 91 | 1014.1 |
| 20260505093323 | 51 | 226 | 0.0 | 0.0 | 0.00 | 0.01 | 0.00 | 91 | 1014.1 |
| 20260505092324 | 51 | 226 | 0.0 | 0.0 | 0.00 | 0.01 | 0.00 | 91 | 1014.2 |
| 20260505091824 | 51 | 226 | 0.0 | 0.0 | 0.00 | 0.01 | 0.00 | 91 | 1014.3 |
| 20260505091324 | 50 | 226 | 0.0 | 0.0 | 0.00 | 0.01 | 0.00 | 92 | 1014.3 |
| 20260505090824 | 50 | 226 | 0.0 | 0.0 | 0.00 | 0.01 | 0.00 | 92 | 1014.4 |
| 20260505090324 | 50 | 226 | 0.0 | 0.0 | 0.00 | 0.01 | 0.00 | 92 | 1014.5 |
| 20260505085824 | 50 | 226 | 0.0 | 0.0 | 0.00 | 0.01 | 0.00 | 91 | 1014.5 |
| 20260505085324 | 50 | 226 | 0.0 | 0.0 | 0.00 | 0.01 | 0.00 | 91 | 1014.6 |
| 20260505084823 | 50 | 226 | 0.0 | 0.0 | 0.00 | 0.01 | 0.00 | 91 | 1014.6 |
| 20260505084324 | 50 | 226 | 0.0 | 0.0 | 0.00 | 0.01 | 0.00 | 91 | 1014.5 |
| 20260505083825 | 50 | 226 | 0.0 | 0.0 | 0.00 | 0.01 | 0.00 | 91 | 1014.5 |
| 20260505083324 | 50 | 226 | 0.0 | 0.0 | 0.00 | 0.01 | 0.00 | 91 | 1014.5 |
| 20260505082833 | 50 | 226 | 0.0 | 0.0 | 0.00 | 0.01 | 0.00 | 91 | 1014.6 |
| 20260505082828 | 50 | 226 | 0.0 | 0.0 | 0.00 | 0.01 | 0.00 | 91 | 1014.6 |
| 20260505081821 | 50 | 226 | 0.0 | 0.0 | 0.00 | 0.01 | 0.00 | 91 | 1014.6 |
| 20260505081319 | 50 | 226 | 0.0 | 0.0 | 0.00 | 0.01 | 0.00 | 91 | 1014.6 |
| 20260505080820 | 50 | 226 | 0.0 | 0.0 | 0.00 | 0.01 | 0.00 | 91 | 1014.8 |
| 20260505080320 | 50 | 226 | 0.0 | 0.0 | 0.00 | 0.01 | 0.00 | 91 | 1014.8 |
| 20260505075820 | 50 | 226 | 0.0 | 0.0 | 0.00 | 0.01 | 0.00 | 91 | 1014.7 |
| 20260505075320 | 50 | 226 | 0.0 | 0.0 | 0.00 | 0.01 | 0.00 | 92 | 1014.7 |
| 20260505074817 | 50 | 226 | 0.0 | 0.0 | 0.00 | 0.01 | 0.00 | 91 | 1014.7 |
| 20260505074317 | 50 | 226 | 0.0 | 0.0 | 0.00 | 0.01 | 0.00 | 91 | 1014.7 |
| 20260505073822 | 50 | 226 | 0.0 | 0.0 | 0.00 | 0.01 | 0.00 | 91 | 1014.6 |
| 20260505073817 | 50 | 226 | 0.0 | 0.0 | 0.00 | 0.01 | 0.00 | 91 | 1014.7 |
| 20260505072818 | 50 | 226 | 0.0 | 0.0 | 0.00 | 0.01 | 0.00 | 91 | 1014.6 |
| 20260505072318 | 50 | 226 | 0.0 | 0.0 | 0.00 | 0.01 | 0.00 | 91 | 1014.5 |
| 20260505071818 | 50 | 226 | 0.0 | 0.0 | 0.00 | 0.01 | 0.00 | 91 | 1014.4 |
| 20260505071318 | 50 | 226 | 0.0 | 0.0 | 0.00 | 0.01 | 0.00 | 91 | 1014.4 |
| 20260505070816 | 50 | 226 | 0.0 | 0.0 | 0.00 | 0.01 | 0.00 | 91 | 1014.4 |
| 20260505070320 | 50 | 226 | 0.0 | 0.0 | 0.00 | 0.01 | 0.01 | 90 | 1014.5 |
| 20260505070316 | 50 | 226 | 0.0 | 0.0 | 0.00 | 0.01 | 0.00 | 90 | 1014.5 |
| 20260505065920 | 50 | 226 | 0.0 | 0.0 | 0.00 | 0.01 | 0.01 | 89 | 1014.5 |
| 20260505064817 | 50 | 226 | 0.0 | 0.0 | 0.00 | 0.01 | 0.01 | 89 | 1014.5 |
| 20260505064317 | 50 | 226 | 0.0 | 0.0 | 0.00 | 0.01 | 0.01 | 88 | 1014.5 |
| 20260505063817 | 51 | 226 | 0.0 | 0.0 | 0.00 | 0.01 | 0.01 | 88 | 1014.4 |
| 20260505063316 | 51 | 226 | 0.0 | 0.0 | 0.00 | 0.01 | 0.01 | 88 | 1014.4 |
| 20260505062819 | 51 | 226 | 0.0 | 0.0 | 0.00 | 0.01 | 0.01 | 87 | 1014.3 |
| 20260505062815 | 51 | 226 | 0.0 | 0.0 | 0.00 | 0.01 | 0.01 | 87 | 1014.4 |
| 20260505061814 | 52 | 226 | 0.0 | 0.0 | 0.00 | 0.01 | 0.01 | 87 | 1014.4 |
| 20260505061315 | 52 | 226 | 0.0 | 0.0 | 0.00 | 0.01 | 0.01 | 86 | 1014.3 |
| 20260505060813 | 52 | 226 | 0.0 | 0.0 | 0.00 | 0.01 | 0.01 | 86 | 1014.3 |
| 20260505060312 | 52 | 226 | 0.0 | 0.0 | 0.00 | 0.01 | 0.01 | 86 | 1014.4 |
| 20260505055812 | 52 | 226 | 0.0 | 0.0 | 0.00 | 0.01 | 0.01 | 86 | 1014.4 |
| 20260505055322 | 52 | 226 | 0.0 | 0.0 | 0.00 | 0.01 | 0.01 | 86 | 1014.4 |
| 20260505055318 | 52 | 226 | 0.0 | 0.0 | 0.00 | 0.01 | 0.01 | 86 | 1014.4 |
| 20260505054316 | 52 | 226 | 0.0 | 0.0 | 0.00 | 0.01 | 0.01 | 85 | 1014.5 |
| 20260505054310 | 52 | 226 | 0.0 | 0.0 | 0.00 | 0.01 | 0.01 | 85 | 1014.5 |
| 20260505053310 | 52 | 227 | 0.0 | 0.0 | 0.00 | 0.01 | 0.01 | 85 | 1014.7 |
| 20260505052814 | 52 | 227 | 0.0 | 0.0 | 0.00 | 0.01 | 0.01 | 86 | 1014.8 |
| 20260505052810 | 52 | 227 | 0.0 | 0.0 | 0.00 | 0.01 | 0.01 | 85 | 1014.7 |
| 20260505051810 | 52 | 227 | 0.0 | 0.0 | 0.00 | 0.01 | 0.01 | 85 | 1014.8 |
| 20260505051310 | 52 | 227 | 0.0 | 0.0 | 0.00 | 0.01 | 0.01 | 85 | 1014.7 |
| 20260505050810 | 52 | 227 | 0.0 | 0.0 | 0.00 | 0.01 | 0.01 | 86 | 1014.8 |
| 20260505050310 | 52 | 227 | 0.0 | 0.0 | 0.00 | 0.01 | 0.01 | 85 | 1014.8 |